Weather in Nezhitino

Russia / Kostroma Oblast     57°28′45″N   43°17′52″E
temp.,
°C
wind,
m/s
gust,
m/s
humid.,
%
clouds,
%
prec.,
mm/h
press.,
hPa
HPBL,
m
11 may, tue
tue1100:00+5ne25965 0.0 1028102
03:00+4nne39953 0.0 1029182
06:00+6ne310830 0.0 1029272
09:00+12ne47500 0.0 1029625
12:00+17ne45400 0.0 1029911
15:00+19ene34413 0.0 1028995
18:00+17ene25602 0.0 1028193
21:00+12ne35810 0.0 102975
12 may, wed
wed1200:00+10ene24921 0.0 102968
03:00+10ene22950 0.0 102917
06:00+12ne36880 0.0 1029155
09:00+19ene35650 0.0 1028529
12:00+23e465047 0.0 10271353
15:00+24ese4745100 0.0 10252711
18:00+22ese495464 0.0 1025407
21:00+15se238091 0.0 102565
13 may, thu
thu1300:00+14se398169 0.0 1026255
03:00+14ese278581 0.0 1026161
06:00+14e277936 0.0 1025173
09:00+20se485682 0.0 1024840
12:00+22ese584620 0.0 10231206
15:00+22se5949100 0.0 10211621
18:00+17se21179100 0.1 1020645
21:00+16sse41274100 0.1 1020742
14 may, fri
fri1400:00+14sse3119378 1.1 1019393
03:00+12s239960 3.2 102089
06:00+13ssw129877 0.0 1020100
09:00+16s2287100 0.0 1020383
12:00+19ssw3472100 0.0 1020598
15:00+20ssw2367100 0.0 1020546
18:00+20ssw13724 0.0 1019245
21:00+16ese118668 0.0 101811
15 may, sat
sat1500:00+14ese2392100 0.0 101742
03:00+14ese2495100 0.1 101784
06:00+17ese3888100 0.0 1015244
09:00+22sse4864100 0.0 1013596
12:00+25s694666 0.0 10121086
15:00+24s610505 0.0 10111181
18:00+22s612585 0.1 1010973
21:00+15s3119399 2.3 1011226